Terug naar catalogus

FENGYUN 1C DEB

ActiefSSO
NORAD 35140·DEBRIS·🇨🇳 China

Gelanceerd May 10, 1999 vanaf Taiyuan Satellite Launch Center

Loading…

Volgende Passages (komende 24 uur)

TLE

VersSource: Space-Track

Epoch: Sep 12, 2026, 09:13 UTC

1 35140U 99025DLU 26255.38404827  .00000158  00000-0  62843-4 0  9995
2 35140  98.4769 230.9241 0289226 249.1008 107.8988 14.21602986911665

Volg FENGYUN 1C DEB in realtime met AllMySat

Download on the App Store